{"data":{"norad_id":25982,"intl_designator":"1999-065C","name":"ORBCOMM FM32","alt_names":[],"object_type":"PAYLOAD","status":"ACTIVE","operator":null,"country":"ORB","launch_date":"1999-12-04","launch_site_code":"ERAS","launch_vehicle":null,"mission":null,"orbit_class":"UNKNOWN","rcs_meters":0.8489,"size_class":null,"mass_kg":null,"dimensions":null,"purposes":["comms"],"wikipedia_slug":null,"has_3d_model":false,"image_url":null,"decayed_at":null,"tle_current":{"epoch":"2026-05-25T01:43:32.236032Z","epoch_age_seconds":59009,"freshness":"FRESH","line1":"1 25982U 99065C   26145.07190088  .00000528  00000+0  22358-3 0  9993","line2":"2 25982  45.0159 282.6508 0005725 288.4865  71.5361 14.37095445383765","mean_motion":14.37095445,"eccentricity":0.0005725,"inclination_deg":45.0159,"raan_deg":282.6508,"arg_perigee_deg":288.4865,"mean_anomaly_deg":71.5361,"bstar":0.00022358,"rev_number":38376,"period_min":100.20211288054,"perigee_km":764.02003193028,"apogee_km":772.2024861869,"semimajor_km":7146.2482590586,"source":"CELESTRAK","updated_at":"2026-05-25T13:38:22.864006Z"}}}